Вернуться в каталог

METEOR 2-5 DEB

АктивенPO
NORAD 45508·DEBRIS·🇷🇺 Russia

Запущен Oct 31, 1979 с Plesetsk Cosmodrome

Loading…

Ближайшие Пролёты (ближайшие 24 часа)

TLE

УстаревающийSource: Space-Track

Эпоха: Sep 4, 2026, 18:40 UTC

1 45508U 79095CQ  26247.77827418  .00003991  00000-0  11399-2 0  9994
2 45508  81.1789  48.5640 0006828 150.4926 209.6650 14.45014895 59560

Отслеживайте METEOR 2-5 DEB в реальном времени с AllMySat

Download on the App Store